Погода в Валериановске

Россия / Свердловская область     58°45′41″N   59°33′24″E
темп.,
°C
ветер,
м/с
пор.,
м/с
влажн.,
%
обл.,
%
осадки,
мм/ч
давл.,
гПа
погр.,
м
6 мая, чт
чт623:00+7з410735 0.3 998936
02:00+5з512785 0.0 999824
05:00+4з6127999 0.0 1001921
08:00+3з61293100 0.2 1003960
11:00+6з7126762 0.3 10051543
14:00+6з6106349 0.1 10081365
17:00+7з7115476 0.2 10111677
20:00+5з513605 0.0 10121336
7 мая, пт
пт723:00+2зюз22750 0.0 101425
02:00+2зюз22760 0.0 101529
05:00+2юз22786 0.0 101626
08:00+8зюз31065100 0.0 1016503
11:00+14зюз61258100 0.0 10161070
14:00+18зюз6104399 0.0 10152281
17:00+16зсз385168 0.0 1016902
20:00+13юз2765100 0.0 1016226
8 мая, сб
сб823:00+12юз237098 0.0 101762
02:00+9юз2283100 0.0 101820
05:00+10юз2279100 0.0 101827
08:00+12юз2470100 0.0 1018192
11:00+17зюз4544100 0.0 10171888
14:00+18юз3438100 0.0 10172408
17:00+17з3345100 0.0 10171606
20:00+14ссз226479 0.0 101819
9 мая, вс
вс923:00+10ссв11795 0.0 101913
02:00+8с22935 0.0 102020
05:00+7с22955 0.0 102144
08:00+11ссв23745 0.0 1021347
11:00+14всв2365100 0.0 1020569
14:00+19вюв34455 0.0 10191558
17:00+19вюв4441100 0.0 10191782
20:00+16в115598 0.0 101911
10 мая, пн
пн1023:00+14юв1163100 0.0 102010
02:00+12ю22698 0.0 102017
05:00+9ю118138 0.0 102110
08:00+14ююв1362100 0.0 1021274
11:00+18ю3645100 0.0 10201421
14:00+21юз4634100 0.0 10192748
17:00+20ююз3836100 0.0 10182323
20:00+14зсз3871100 0.0 1020625